Temp
-1 -1 -1 -2 -2 -2 -2 -2 -2 -2 -2 -2 -2 -1 -1 -0 -0 0 -0 1 2 2 2 3 3 3 4 3 0 3 2 2 -0 -1 -1 0 0 1 1 3 0 0 -2 -0 0 -3 -1 -1 1 -0 -1 -1 -1 -1
-1 -1 -2 -2 -2 -2 -2 -3 -2 -2 -2 -2 -2 -1 -1 -1 -1 -0 -0 0 1 1 0 2 2 2 2 2 2 3 3 4 3 -3 -3 -3 -1 -1 1 -0 2 -1 1 1 1 1 -1 -1 -1 -2 -2 -2 -2 -1
-1 -2 -2 -2 -2 -2 -2 -2 -2 -2 -2 -2 -2 -1 -1 -1 -1 -1 -1 -1 -0 -0 1 1 2 2 2 2 2 2 2 2 3 2 2 -2 -1 0 -2 -0 1 1 0 -1 1 0 -0 -1 -2 -2 -2 -2 -2 -2
-2 -2 -2 -2 -2 -2 -2 -2 -2 -2 -2 -2 -2 -2 -1 -1 -1 -1 -1 -1 -1 -1 -1 2 2 2 2 1 1 2 1 2 2 2 2 -3 -1 3 1 1 1 1 2 1 0 0 0 -1 -2 -2 -2 -2 -2 -2
-2 -2 -2 -2 -2 -2 -2 -2 -2 -2 -2 -2 -2 -2 -2 -2 -1 -1 -1 -1 -1 -1 -1 0 2 2 2 2 1 1 1 1 2 1 -3 -3 2 1 1 2 2 2 0 -1 -0 -1 -1 -1 -1 -1 -1 -2 -2 -3
-2 -2 -2 -2 -2 -2 -2 -2 -2 -2 -2 -3 -2 -2 -2 -2 -1 -1 -1 -2 -2 -1 -1 -3 1 2 2 2 2 2 1 2 1 1 1 2 3 2 -1 -0 2 1 1 0 -0 -0 -2 -1 -0 -1 -1 -2 -3 -4
-2 -2 -2 -2 -2 -2 -2 -2 -2 -2 -2 -2 -2 -2 -2 -2 -2 -2 -2 -2 -1 -2 -1 -1 -1 2 3 2 2 2 2 2 2 1 1 2 2 2 -2 0 1 2 1 0 0 1 -0 -0 -1 -1 -2 -3 -4 -4
-3 -2 -2 -2 -2 -2 -2 -2 -2 -2 -3 -3 -2 -3 -3 -2 -2 -2 -2 -1 -2 -2 -1 -4 -3 1 3 2 2 2 1 1 1 1 1 1 2 1 0 1 1 1 1 -0 -0 -1 -1 -1 -2 -3 -3 -4 -5 -6
-4 -3 -3 -2 -2 -2 -2 -2 -3 -3 -3 -3 -3 -3 -3 -3 -2 -2 -2 -2 -2 -2 -2 -2 -4 -0 3 2 1 -0 0 -2 0 -2 -0 1 -0 -0 1 0 0 -1 -1 -1 -1 -2 -3 -4 -4 -5 -5 -6 -7 -8
-3 -3 -3 -3 -3 -3 -3 -3 -3 -3 -3 -4 -4 -3 -2 -2 -2 -2 -2 -3 -3 -3 -2 -2 -0 -2 3 2 -0 -1 -1 -0 -1 -1 2 -0 -1 -0 -0 -1 -1 -2 -2 -3 -3 -4 -5 -6 -6 -7 -7 -8 -8 -9
-4 -4 -3 -3 -3 -3 -3 -3 -4 -4 -4 -4 -3 -3 -2 -2 -2 -2 -3 -3 -2 -3 -3 -2 -0 -2 3 -2 -3 2 -2 -3 -1 0 -0 0 0 -1 -1 -2 -3 -3 -4 -4 -5 -6 -6 -7 -7 -7 -8 -9 -9 -10
-5 -4 -4 -3 -3 -3 -4 -3 -4 -4 -3 -2 -2 -3 -3 -2 -3 -3 -2 -2 -2 -1 0 0 1 1 2 3 2 2 -1 -2 -0 1 1 1 -1 -1 -1 -3 -4 -4 -5 -6 -6 -7 -7 -7 -8 -9 -9 -10 -10 -11
-4 -4 -4 -4 -3 -3 -3 -4 -3 -2 -2 -2 -2 -2 -3 -2 -3 -4 -4 -3 -3 2 3 2 -1 2 2 2 0 -3 0 -1 2 -2 1 -1 -1 -1 -2 -3 -4 -5 -5 -6 -7 -7 -8 -8 -9 -9 -11 -11 -12 -12
-5 -4 -4 -4 -4 -3 -3 -3 -3 -3 -3 -3 -3 -3 -3 -5 -3 -2 -2 -1 2 3 3 2 0 1 1 -1 -2 -0 -1 -1 -2 -1 -0 -2 -1 -2 -3 -4 -5 -5 -6 -7 -8 -9 -9 -10 -10 -11 -12 -12 -12 -12
-5 -5 -4 -4 -4 -3 -3 -3 -4 -3 -3 -3 -2 -5 -4 -0 1 0 1 3 3 3 2 1 1 1 -3 -3 -3 -0 -1 0 -1 -1 -3 -3 -3 -4 -5 -5 -6 -7 -8 -9 -10 -10 -11 -11 -11 -11 -12 -12 -12 -13
-5 -5 -5 -4 -4 -3 -3 -4 -4 -3 -3 -2 -3 -3 -2 -2 -1 -2 -2 -0 1 2 2 1 -1 -2 -4 0 -0 -1 -1 -1 -1 -3 -4 -4 -4 -5 -6 -7 -8 -8 -9 -10 -10 -11 -11 -11 -12 -12 -12 -12 -12 -13
-5 -5 -5 -4 -4 -4 -4 -4 -4 -4 -4 -3 -2 -3 -3 -3 -2 -2 -2 -1 -1 1 -1 -1 -0 -1 -2 -2 -1 -2 -3 -3 -4 -5 -5 -5 -6 -7 -7 -8 -9 -9 -10 -10 -10 -11 -11 -12 -12 -12 -12 -13 -13 -13
-5 -5 -4 -4 -4 -4 -4 -4 -4 -3 -3 -3 -2 -4 -3 -4 -3 -3 -4 -3 -2 -1 -0 -1 -1 -1 -2 -1 -2 -3 -5 -5 -5 -6 -6 -7 -7 -8 -8 -9 -9 -10 -10 -10 -11 -11 -11 -11 -12 -13 -13 -13 -13 -13
-4 -4 -4 -4 -4 -4 -4 -4 -3 -3 -2 -3 -4 -4 -3 -4 -4 -4 -4 -4 -3 -3 -2 -2 -1 -3 -4 -4 -4 -5 -5 -5 -6 -6 -7 -8 -9 -9 -10 -10 -9 -10 -10 -10 -11 -11 -12 -12 -13 -13 -14 -14 -14 -14
-4 -4 -4 -4 -4 -3 -4 -4 -2 -2 -3 -4 -4 -4 -4 -4 -5 -5 -5 -5 -4 -3 -3 -2 -6 -6 -6 -6 -6 -6 -6 -6 -6 -7 -8 -9 -9 -9 -10 -10 -10 -10 -10 -11 -11 -12 -12 -12 -13 -14 -14 -14 -14 -14
-4 -4 -4 -4 -4 -4 -3 -3 -2 -3 -4 -4 -4 -4 -5 -6 -6 -5 -5 -5 -5 -3 -4 -6 -7 -7 -7 -7 -7 -7 -7 -7 -7 -7 -8 -9 -10 -10 -10 -10 -11 -11 -11 -11 -12 -12 -13 -13 -14 -14 -14 -14 -14 -15
-4 -4 -4 -4 -4 -4 -4 -4 -3 -4 -4 -5 -5 -4 -5 -5 -5 -5 -5 -5 -5 -7 -7 -7 -8 -8 -9 -9 -9 -8 -9 -9 -9 -9 -9 -9 -10 -11 -11 -11 -11 -11 -12 -12 -13 -13 -14 -14 -14 -14 -14 -14 -14 -15
-4 -4 -3 -3 -4 -4 -5 -4 -4 -4 -6 -5 -5 -4 -4 -4 -6 -6 -6 -6 -8 -8 -9 -8 -9 -9 -9 -9 -10 -10 -10 -10 -10 -10 -11 -11 -11 -11 -12 -12 -12 -12 -13 -13 -13 -14 -14 -14 -14 -14 -14 -14 -14 -14
-4 -3 -2 -3 -3 -5 -5 -4 -4 -4 -4 -5 -5 -5 -5 -5 -6 -6 -7 -7 -9 -9 -9 -9 -9 -10 -10 -10 -11 -11 -10 -11 -11 -11 -11 -11 -11 -11 -12 -12 -13 -13 -13 -13 -13 -14 -14 -14 -14 -14 -15 -14 -15 -15
-2 -4 -3 -5 -3 -4 -6 -5 -4 -4 -5 -5 -4 -6 -8 -6 -8 -7 -6 -9 -9 -10 -10 -10 -10 -10 -10 -10 -11 -11 -11 -11 -11 -11 -12 -11 -11 -12 -12 -13 -13 -13 -13 -13 -13 -14 -14 -14 -14 -15 -15 -15 -15 -15
-5 -5 -5 -3 -4 -4 -4 -4 -4 -4 -5 -5 -5 -5 -5 -7 -6 -7 -8 -9 -9 -10 -10 -10 -10 -10 -10 -11 -11 -12 -12 -12 -12 -12 -12 -12 -12 -12 -12 -13 -14 -14 -14 -15 -14 -14 -14 -14 -14 -15 -15 -15 -15 -15
-6 -7 -6 -5 -4 -3 -4 -3 -2 -4 -5 -5 -6 -8 -8 -8 -7 -10 -10 -10 -10 -10 -10 -10 -10 -10 -11 -12 -12 -12 -12 -12 -12 -12 -13 -13 -13 -13 -13 -13 -14 -14 -15 -16 -15 -15 -15 -15 -15 -15 -15 -15 -16 -16
-6 -7 -9 -6 -5 -5 -6 -6 -6 -6 -6 -4 -5 -7 -7 -9 -10 -10 -11 -11 -11 -11 -11 -11 -11 -11 -12 -12 -13 -13 -13 -13 -13 -13 -14 -14 -14 -14 -14 -14 -14 -15 -16 -16 -16 -16 -15 -15 -15 -16 -16 -16 -16 -17
-8 -8 -7 -9 -8 -7 -7 -8 -7 -9 -9 -7 -7 -10 -12 -13 -13 -12 -12 -12 -12 -12 -12 -12 -13 -13 -13 -14 -14 -14 -14 -14 -14 -14 -14 -15 -15 -14 -14 -15 -15 -15 -16 -16 -16 -17 -16 -16 -16 -16 -17 -17 -17 -17
-8 -8 -10 -10 -12 -11 -11 -11 -12 -11 -10 -10 -11 -13 -14 -14 -13 -13 -13 -13 -13 -13 -13 -13 -13 -13 -13 -13 -13 -13 -13 -14 -14 -14 -14 -14 -14 -14 -14 -15 -15 -15 -16 -17 -17 -17 -17 -17 -17 -17 -17 -17 -17 -17
-9 -9 -9 -10 -11 -12 -13 -13 -13 -12 -12 -12 -12 -12 -14 -14 -14 -14 -14 -13 -13 -13 -14 -14 -14 -14 -14 -15 -14 -13 -14 -14 -14 -14 -14 -14 -14 -14 -15 -15 -15 -15 -16 -17 -18 -18 -17 -17 -17 -17 -18 -18 -18 -18
-10 -9 -10 -12 -13 -14 -14 -13 -13 -12 -12 -12 -13 -14 -15 -15 -15 -14 -15 -14 -13 -13 -14 -14 -14 -14 -14 -15 -14 -14 -14 -14 -14 -14 -14 -14 -15 -15 -15 -15 -15 -15 -16 -17 -17 -18 -17 -17 -17 -17 -17 -17 -17 -17
-10 -10 -12 -13 -14 -13 -13 -12 -11 -12 -12 -12 -13 -13 -13 -12 -13 -14 -14 -14 -14 -14 -15 -14 -14 -14 -14 -14 -14 -14 -14 -14 -14 -14 -14 -14 -14 -15 -15 -15 -15 -15 -16 -16 -16 -16 -17 -17 -17 -17 -17 -17 -17 -17
Height
1380 1386 1392 1397 1403 1407 1412 1417 1422 1427 1433 1438 1442 1447 1451 1455 1458 1460 1462 1464 1467 1470 1474 1476 1478 1479 1480 1482 1486 1486 1487 1488 1488 1492 1495 1491 1490 1487 1488 1481 1486 1486 1491 1483 1477 1492 1485 1476 1466 1469 1477 1471 1467 1460
1380 1387 1393 1398 1403 1408 1414 1419 1424 1430 1433 1438 1443 1449 1451 1457 1461 1462 1464 1466 1468 1471 1476 1476 1478 1479 1481 1483 1484 1485 1488 1486 1488 1494 1495 1495 1494 1490 1488 1492 1481 1493 1485 1485 1481 1479 1482 1480 1478 1477 1473 1470 1466 1462
1381 1387 1393 1398 1404 1410 1415 1420 1426 1432 1436 1440 1445 1450 1454 1458 1462 1465 1465 1468 1471 1473 1476 1477 1478 1480 1481 1483 1485 1486 1488 1489 1490 1491 1491 1493 1495 1488 1498 1488 1483 1481 1482 1484 1480 1481 1479 1479 1478 1475 1472 1468 1465 1463
1380 1387 1393 1399 1404 1411 1417 1422 1428 1433 1438 1443 1448 1453 1454 1460 1463 1467 1468 1470 1473 1475 1477 1479 1479 1479 1481 1482 1484 1485 1488 1489 1490 1490 1491 1493 1495 1486 1486 1483 1482 1482 1481 1479 1479 1479 1477 1477 1477 1475 1472 1469 1466 1463
1380 1387 1394 1400 1406 1413 1419 1424 1430 1436 1440 1444 1451 1453 1456 1461 1464 1468 1471 1472 1474 1478 1480 1479 1478 1479 1480 1481 1483 1485 1488 1488 1489 1490 1491 1494 1487 1486 1482 1478 1478 1479 1481 1484 1481 1482 1481 1479 1477 1475 1472 1469 1466 1463
1380 1385 1393 1400 1407 1413 1419 1425 1431 1436 1441 1447 1450 1454 1459 1462 1465 1471 1473 1475 1475 1477 1478 1481 1479 1478 1478 1480 1482 1484 1486 1487 1489 1489 1488 1487 1484 1486 1488 1483 1479 1479 1480 1481 1481 1480 1480 1478 1477 1474 1472 1470 1467 1464
1380 1385 1391 1399 1406 1413 1419 1425 1431 1438 1442 1446 1451 1456 1461 1463 1467 1472 1474 1476 1475 1477 1479 1481 1479 1477 1478 1480 1481 1482 1484 1485 1486 1487 1486 1485 1483 1485 1484 1481 1478 1479 1478 1479 1479 1478 1478 1477 1476 1474 1471 1469 1467 1464
1379 1384 1390 1396 1404 1412 1419 1426 1433 1438 1444 1449 1453 1458 1461 1465 1470 1473 1475 1475 1476 1479 1481 1483 1482 1478 1477 1478 1480 1481 1482 1484 1484 1484 1483 1482 1481 1481 1479 1476 1476 1478 1478 1478 1478 1477 1477 1475 1474 1473 1471 1468 1465 1464
1381 1386 1389 1395 1402 1412 1420 1427 1434 1440 1445 1450 1454 1459 1463 1468 1472 1474 1476 1477 1478 1482 1482 1483 1485 1478 1476 1476 1478 1480 1482 1485 1483 1482 1479 1479 1476 1477 1472 1475 1475 1477 1478 1478 1477 1475 1475 1474 1473 1472 1470 1467 1466 1463
1382 1387 1391 1395 1403 1412 1421 1428 1434 1441 1446 1451 1457 1462 1466 1470 1473 1475 1477 1478 1479 1480 1481 1480 1478 1477 1474 1474 1477 1480 1482 1481 1480 1474 1472 1473 1473 1474 1474 1475 1476 1477 1477 1477 1475 1475 1475 1474 1473 1472 1469 1467 1464 1461
1383 1389 1394 1399 1406 1413 1421 1428 1435 1441 1447 1453 1458 1462 1467 1471 1474 1476 1478 1479 1479 1480 1477 1474 1473 1474 1472 1474 1475 1475 1477 1476 1476 1469 1470 1466 1468 1473 1474 1476 1476 1477 1477 1477 1476 1475 1475 1473 1471 1469 1467 1465 1462 1460
1384 1390 1396 1402 1408 1414 1422 1428 1434 1440 1446 1453 1457 1464 1469 1472 1475 1477 1477 1476 1475 1471 1467 1467 1468 1470 1471 1470 1471 1473 1475 1473 1472 1464 1463 1461 1471 1473 1474 1475 1476 1477 1477 1476 1475 1475 1474 1472 1471 1469 1467 1464 1461 1458
1385 1391 1397 1403 1410 1416 1423 1429 1437 1444 1449 1456 1461 1464 1467 1472 1473 1476 1477 1471 1470 1461 1461 1463 1466 1468 1469 1471 1472 1474 1474 1473 1462 1466 1461 1467 1470 1473 1474 1474 1476 1477 1477 1476 1475 1474 1473 1472 1470 1468 1465 1463 1460 1456
1386 1392 1398 1404 1410 1417 1423 1431 1439 1446 1451 1455 1458 1464 1465 1469 1465 1460 1459 1458 1457 1457 1459 1462 1466 1468 1469 1470 1471 1474 1470 1466 1470 1468 1462 1468 1470 1472 1474 1475 1474 1475 1476 1476 1474 1474 1472 1470 1467 1465 1463 1461 1459 1455
1386 1392 1398 1404 1409 1416 1424 1433 1441 1446 1450 1453 1456 1460 1460 1455 1455 1455 1454 1455 1456 1457 1459 1463 1466 1468 1468 1471 1471 1468 1469 1463 1461 1461 1466 1468 1469 1472 1473 1475 1475 1476 1475 1474 1474 1472 1470 1468 1466 1465 1463 1461 1459 1455
1387 1394 1398 1404 1409 1415 1424 1434 1441 1448 1451 1453 1454 1455 1455 1454 1455 1455 1455 1456 1456 1457 1459 1462 1465 1468 1471 1466 1466 1465 1462 1460 1462 1464 1467 1468 1470 1472 1473 1474 1475 1475 1474 1474 1473 1472 1469 1468 1467 1464 1462 1460 1458 1455
1387 1390 1396 1404 1410 1418 1425 1434 1442 1448 1451 1452 1454 1454 1454 1456 1456 1457 1457 1458 1458 1458 1459 1461 1461 1463 1459 1462 1460 1459 1463 1462 1463 1466 1468 1469 1471 1472 1473 1474 1474 1474 1474 1473 1472 1470 1468 1467 1465 1463 1461 1459 1457 1455
1385 1390 1397 1405 1412 1419 1430 1435 1441 1446 1449 1450 1452 1454 1454 1457 1458 1458 1459 1459 1460 1459 1459 1461 1460 1458 1459 1458 1460 1463 1464 1465 1466 1467 1469 1470 1471 1472 1473 1473 1473 1472 1472 1471 1470 1469 1467 1466 1464 1463 1460 1458 1457 1455
1385 1392 1400 1406 1414 1422 1431 1439 1441 1444 1446 1448 1451 1453 1454 1457 1457 1458 1459 1459 1459 1460 1460 1460 1457 1458 1461 1462 1463 1464 1465 1465 1466 1468 1469 1470 1470 1470 1471 1471 1470 1470 1470 1469 1468 1468 1467 1465 1464 1462 1460 1458 1456 1454
1388 1396 1404 1410 1419 1424 1431 1437 1441 1443 1446 1448 1450 1452 1456 1458 1457 1457 1457 1458 1459 1459 1459 1457 1458 1459 1460 1462 1462 1463 1464 1465 1467 1467 1468 1469 1469 1469 1469 1469 1469 1469 1468 1468 1468 1468 1467 1465 1464 1462 1460 1458 1456 1455
1397 1403 1407 1413 1421 1426 1432 1435 1439 1442 1445 1447 1449 1452 1454 1455 1455 1456 1456 1457 1458 1456 1455 1456 1457 1458 1460 1460 1462 1463 1464 1464 1465 1465 1466 1468 1469 1468 1468 1468 1468 1468 1468 1468 1468 1467 1466 1464 1462 1461 1460 1458 1456 1454
1400 1408 1414 1420 1424 1428 1433 1436 1438 1441 1445 1446 1449 1450 1451 1452 1452 1452 1453 1455 1454 1453 1454 1454 1455 1457 1458 1460 1461 1462 1463 1464 1465 1466 1466 1467 1467 1467 1468 1468 1468 1468 1468 1467 1467 1466 1465 1464 1462 1461 1460 1458 1457 1456
1410 1416 1421 1424 1428 1432 1438 1437 1438 1440 1443 1445 1447 1448 1448 1449 1450 1452 1452 1451 1451 1452 1452 1453 1455 1457 1459 1460 1461 1462 1464 1464 1465 1466 1466 1467 1467 1467 1467 1468 1468 1468 1467 1467 1467 1466 1465 1464 1462 1461 1460 1459 1458 1457
1413 1418 1421 1423 1426 1432 1435 1436 1437 1439 1441 1444 1445 1445 1446 1448 1450 1451 1449 1448 1449 1450 1452 1454 1455 1457 1459 1460 1461 1462 1463 1464 1464 1465 1466 1466 1467 1467 1467 1467 1467 1467 1467 1467 1466 1466 1465 1463 1462 1461 1460 1459 1458 1457
1416 1420 1422 1424 1427 1430 1432 1433 1435 1437 1440 1440 1441 1444 1445 1447 1449 1447 1443 1445 1447 1449 1451 1452 1454 1455 1457 1458 1459 1461 1462 1463 1463 1464 1465 1465 1466 1466 1467 1466 1466 1466 1467 1466 1465 1465 1463 1462 1461 1460 1459 1458 1457 1456
1414 1416 1419 1419 1423 1425 1427 1431 1433 1434 1435 1438 1439 1440 1443 1444 1444 1443 1441 1443 1445 1447 1449 1451 1452 1454 1455 1456 1458 1459 1461 1462 1462 1463 1464 1464 1465 1465 1465 1465 1465 1465 1465 1464 1463 1463 1462 1461 1460 1459 1458 1457 1456 1455
1415 1416 1417 1418 1419 1421 1423 1424 1426 1429 1432 1433 1435 1439 1441 1442 1438 1441 1441 1442 1443 1446 1447 1449 1451 1452 1454 1455 1457 1458 1460 1461 1462 1463 1463 1464 1464 1464 1464 1465 1464 1464 1463 1463 1462 1461 1461 1460 1459 1459 1458 1457 1456 1455
1412 1414 1417 1418 1419 1420 1421 1422 1424 1426 1426 1428 1431 1435 1435 1435 1437 1439 1439 1441 1442 1444 1446 1448 1449 1451 1453 1455 1456 1457 1459 1460 1461 1462 1463 1463 1463 1463 1463 1463 1462 1462 1462 1462 1461 1460 1459 1459 1458 1457 1457 1456 1455 1454
1412 1413 1415 1419 1420 1421 1422 1422 1421 1422 1424 1425 1426 1431 1434 1435 1436 1437 1438 1440 1442 1444 1445 1447 1449 1451 1452 1454 1455 1456 1457 1458 1460 1461 1462 1462 1462 1463 1462 1462 1461 1460 1460 1460 1460 1459 1458 1458 1457 1456 1455 1455 1454 1453
1409 1411 1415 1419 1420 1421 1421 1421 1421 1422 1423 1424 1426 1429 1432 1434 1436 1437 1438 1439 1441 1442 1444 1446 1448 1450 1451 1453 1454 1456 1457 1458 1459 1460 1460 1460 1461 1461 1461 1460 1459 1459 1458 1458 1458 1457 1457 1457 1456 1455 1454 1454 1453 1452
1407 1410 1414 1417 1419 1420 1420 1421 1422 1423 1424 1425 1426 1427 1430 1432 1435 1436 1437 1438 1439 1441 1443 1445 1447 1449 1450 1451 1452 1454 1455 1457 1457 1459 1459 1459 1459 1459 1459 1458 1458 1457 1457 1456 1456 1456 1456 1455 1455 1454 1453 1452 1451 1450
1407 1408 1411 1416 1419 1420 1421 1422 1422 1423 1424 1425 1426 1427 1430 1431 1432 1434 1433 1436 1438 1440 1441 1443 1444 1446 1449 1451 1452 1453 1454 1455 1456 1457 1457 1457 1458 1457 1457 1457 1456 1456 1456 1455 1455 1455 1454 1454 1453 1453 1452 1451 1450 1449
1406 1407 1410 1413 1416 1417 1418 1419 1421 1422 1423 1423 1423 1424 1426 1427 1427 1428 1428 1432 1435 1437 1438 1440 1443 1445 1447 1449 1451 1452 1453 1454 1455 1455 1456 1456 1456 1456 1456 1456 1456 1456 1456 1456 1455 1455 1454 1454 1453 1452 1451 1450 1448 1447
Wind_Speed
25 23 21 19 19 18 17 18 16 19 20 17 18 20 22 17 12 14 10 9 9 6 7 5 5 3 4 5 3 4 3 5 5 5 3 3 2 2 2 1 3 2 3 3 3 5 4 19 7 6 5 13 18 17
27 24 21 21 21 19 19 18 23 24 20 16 19 20 20 17 12 9 10 8 10 7 3 3 5 4 3 4 5 3 2 1 2 3 3 2 2 3 2 2 1 3 2 3 3 2 2 6 2 11 11 12 14 15
25 26 23 25 21 23 22 26 27 25 20 18 20 21 18 17 12 7 10 7 7 5 3 1 0 1 7 10 7 3 5 6 6 5 1 1 1 2 1 3 2 2 0 2 3 4 10 6 10 13 14 13 16 16
27 27 23 25 24 28 27 27 26 22 18 16 16 17 17 15 15 11 10 11 9 3 1 3 5 2 3 4 5 7 3 1 3 3 0 1 1 4 3 5 2 3 1 3 2 5 7 15 14 14 15 15 11 13
27 28 25 28 30 31 28 24 21 20 15 16 14 13 15 15 13 9 7 7 6 5 2 5 5 6 9 5 9 6 5 2 3 2 1 2 4 3 5 2 1 1 1 1 1 6 6 5 12 11 13 15 12 13
20 29 29 30 29 29 25 22 18 20 16 17 18 14 14 15 12 8 4 4 1 1 2 2 4 4 5 10 10 10 9 9 7 2 2 4 11 6 1 2 4 4 4 2 2 4 6 9 8 10 11 12 12 12
22 21 28 34 30 30 25 23 23 21 18 19 16 15 15 14 11 4 5 5 4 6 3 3 6 2 7 9 8 10 12 7 6 4 4 5 16 6 1 3 8 4 2 2 4 6 2 8 9 11 11 9 9 11
15 18 25 35 36 30 28 26 26 22 23 20 16 17 14 12 12 6 7 7 8 4 2 1 3 4 11 5 4 6 6 4 3 4 2 5 6 6 3 8 11 6 4 8 8 9 8 6 8 10 11 12 10 11
13 11 20 28 36 34 30 27 26 25 22 19 21 17 14 10 5 4 5 4 5 1 1 3 2 1 10 4 4 4 4 1 4 4 4 4 2 3 4 8 10 8 5 4 6 8 8 9 9 10 11 13 12 13
18 15 17 29 36 34 31 29 29 28 25 25 22 8 5 9 8 7 3 2 1 2 2 3 4 2 3 3 3 6 4 2 2 6 5 3 1 11 11 8 7 6 5 5 7 11 9 8 9 9 11 12 13 14
21 18 21 27 32 32 30 32 34 32 28 22 8 5 11 14 6 2 2 1 3 3 6 7 11 3 3 2 2 7 3 2 2 2 3 3 3 5 8 7 8 7 5 7 5 3 4 6 9 11 12 13 15 14
21 23 22 23 27 31 33 37 37 34 22 16 10 17 16 4 3 2 3 2 4 4 8 5 10 15 4 0 2 1 2 1 4 6 2 1 2 10 10 10 7 7 7 5 3 4 6 8 11 11 12 15 15 14
22 23 26 25 27 32 36 36 32 26 26 20 6 6 4 4 3 5 5 3 2 4 7 9 2 5 3 2 4 2 2 4 5 2 2 1 11 9 10 8 5 4 2 0 3 6 8 10 12 12 14 14 18 16
22 22 24 30 26 33 37 35 32 32 20 5 6 6 4 4 4 4 4 5 9 4 13 14 5 2 2 2 2 2 4 2 3 1 2 3 13 10 10 7 8 1 3 4 6 8 10 14 13 12 14 17 21 19
23 23 23 27 25 41 38 37 36 28 5 3 5 4 5 7 2 3 3 4 8 8 17 8 3 3 1 2 2 2 2 4 4 2 2 14 14 12 10 7 4 2 3 6 8 11 13 14 14 12 10 12 19 17
23 21 24 29 25 39 42 41 35 21 4 3 1 1 5 2 2 3 4 3 3 6 14 4 3 2 4 3 4 6 3 3 2 3 14 15 13 10 7 3 1 1 4 5 8 11 10 9 14 10 11 11 15 12
26 18 31 30 34 44 44 31 21 5 6 2 3 2 4 1 4 3 2 0 2 1 2 2 3 7 2 2 3 3 2 1 13 15 13 11 9 5 2 0 1 3 3 6 8 6 7 7 10 10 11 11 9 11
29 25 36 33 41 41 35 9 5 5 4 5 6 6 5 1 2 3 1 3 2 1 3 1 4 1 3 1 2 2 5 12 12 11 8 5 5 4 5 3 3 3 2 8 7 6 7 8 6 10 12 8 7 8
27 31 37 46 43 27 6 7 5 5 3 9 11 6 5 2 3 4 4 4 4 3 2 3 3 1 2 4 6 9 8 7 9 6 3 3 3 2 5 1 2 3 5 5 6 5 7 4 8 11 10 8 7 9
36 37 47 44 32 8 5 4 12 4 4 6 7 9 4 3 3 2 2 4 3 2 4 2 1 2 4 7 9 11 9 7 4 7 6 5 4 3 4 5 4 4 3 3 3 3 3 6 8 8 9 10 6 10
39 36 35 25 13 8 5 4 5 5 8 5 10 10 4 4 4 5 3 3 4 3 2 3 8 9 8 8 7 6 6 7 6 10 15 9 5 3 2 2 2 1 1 1 2 6 7 9 7 5 7 8 10 7
32 33 31 13 6 5 4 4 8 8 5 8 11 8 4 4 6 5 5 5 2 4 4 7 9 7 9 8 7 5 7 6 4 5 5 7 6 2 2 3 4 3 2 3 3 5 8 9 6 4 7 7 8 10
30 23 14 4 4 3 3 8 3 4 3 6 8 3 3 3 3 5 2 2 4 5 7 9 7 8 6 6 7 9 9 9 7 7 5 4 5 4 4 3 1 2 3 6 5 6 8 8 6 7 5 6 5 5
16 5 5 4 3 4 7 4 4 4 4 3 3 3 3 4 6 2 3 6 7 9 9 8 9 9 8 10 9 10 9 6 5 8 6 8 5 3 2 2 4 4 3 2 5 7 10 6 7 5 4 4 3 4
4 3 5 3 5 6 4 3 2 2 3 3 3 2 2 5 2 3 2 7 12 12 9 13 10 9 12 15 10 7 10 7 9 6 8 7 6 5 4 5 3 2 3 3 1 4 6 8 8 6 5 7 2 1
3 2 3 7 5 5 5 4 6 4 3 2 3 6 5 3 3 4 2 12 15 15 14 13 12 9 13 10 9 10 11 10 6 4 3 6 8 7 7 7 4 2 7 4 2 0 6 5 8 7 6 6 7 1
3 3 4 4 4 4 3 3 8 3 4 4 3 3 3 4 4 3 8 12 17 16 14 13 14 13 14 14 12 8 6 10 9 4 1 1 1 3 7 8 7 5 2 5 1 3 3 2 3 5 4 4 6 8
2 5 4 5 3 3 2 2 3 4 3 6 11 4 4 2 2 5 9 15 17 16 15 14 14 13 11 9 8 6 5 8 7 4 3 3 5 5 5 4 2 3 2 3 6 7 4 5 3 3 4 4 5 6
3 6 8 3 4 2 1 1 1 3 4 5 2 3 3 4 4 13 17 16 14 13 16 16 14 11 11 11 11 9 11 11 8 5 3 9 7 4 7 8 5 1 5 3 2 6 7 4 4 3 3 2 3 4
6 13 5 2 3 3 3 3 3 4 6 6 7 7 7 10 13 11 11 11 12 12 12 12 13 12 12 11 10 8 7 8 10 8 9 10 7 8 10 8 5 3 2 3 2 2 2 0 2 1 5 4 5 8
14 7 6 4 2 2 6 6 6 8 7 5 5 7 9 10 14 15 15 15 16 16 14 14 12 9 9 7 5 7 8 7 8 9 8 7 7 7 5 4 3 2 2 2 1 2 0 3 3 4 6 7 6 6
9 6 6 3 3 7 11 7 6 3 5 4 4 6 7 7 9 16 19 19 19 17 15 16 18 16 15 12 9 7 5 3 3 3 3 2 1 2 3 3 2 2 2 0 1 2 2 2 3 4 4 7 8 8
6 9 8 6 6 7 9 7 7 6 7 8 8 11 12 11 7 13 18 22 19 17 18 17 14 12 12 11 9 6 5 4 3 3 2 1 2 2 3 4 5 4 4 4 5 5 5 5 5 7 7 7 8 9
Wind_Direction
166 169 167 167 168 167 167 169 167 164 161 162 156 152 163 156 137 148 127 129 128 94 77 80 87 40 44 37 81 318 67 12 16 36 58 329 16 276 38 329 326 344 350 330 351 18 356 3 357 44 296 314 333 341
168 168 173 171 167 169 173 170 156 154 150 158 159 151 158 159 133 137 139 149 140 101 89 178 198 215 110 67 99 23 338 349 109 69 24 9 335 358 340 292 343 17 3 326 335 36 28 18 7 13 349 335 351 10
168 171 172 169 171 169 167 161 161 155 144 133 144 148 149 158 141 113 98 101 112 67 72 72 198 15 220 222 199 108 55 27 60 39 98 246 300 67 337 288 42 89 51 246 333 46 3 55 31 15 1 1 10 12
173 175 172 170 168 165 159 154 154 153 154 142 136 149 152 153 150 120 101 96 75 73 64 50 140 298 164 185 225 207 221 311 2 344 168 204 203 285 280 252 278 170 222 302 265 22 354 16 14 9 4 5 12 14
174 177 173 173 170 171 170 168 173 171 160 160 158 143 151 156 155 157 112 118 94 72 28 316 299 229 232 206 199 204 205 224 307 321 106 237 256 321 308 280 99 4 154 101 300 8 303 335 354 8 11 12 21 20
175 175 176 177 177 179 176 178 170 165 158 167 160 147 152 159 156 145 107 90 145 150 76 357 328 225 174 211 211 185 204 224 227 243 241 233 254 285 281 282 113 158 201 177 210 344 15 357 2 14 12 11 22 21
169 185 183 179 183 182 182 183 176 160 157 154 151 149 151 155 152 112 97 118 25 150 97 325 320 302 194 194 207 210 220 229 222 238 226 243 274 278 235 243 168 106 127 151 349 336 19 21 33 25 14 14 11 2
163 163 182 186 181 174 168 162 156 153 151 147 145 141 148 156 153 121 88 57 118 90 72 64 278 273 194 190 151 176 163 191 238 224 266 254 268 198 241 128 110 75 61 48 20 71 54 33 25 24 13 0 3 6
181 184 170 180 178 168 163 163 157 151 147 143 139 143 139 146 129 126 107 81 98 97 88 165 208 295 177 179 143 132 168 160 233 204 230 212 234 218 136 131 88 65 55 25 50 54 45 38 21 16 4 353 354 352
165 170 170 153 155 159 162 161 157 152 146 143 141 122 141 155 121 123 111 104 76 165 224 245 234 271 235 129 148 133 172 228 231 223 198 170 119 103 101 91 101 86 68 65 61 44 33 26 10 7 0 341 341 346
174 166 169 166 163 163 161 162 158 156 154 144 137 102 135 129 130 110 89 176 175 239 216 231 220 243 262 124 178 195 191 232 253 255 171 209 134 145 133 122 111 91 76 79 77 58 34 359 357 353 340 338 338 341
174 173 167 165 168 164 161 165 163 165 156 142 133 128 126 134 103 149 195 207 204 233 192 193 209 206 234 168 117 293 205 33 247 158 259 121 109 145 143 136 139 130 104 85 37 10 7 358 355 350 343 341 341 336
178 177 177 174 171 166 168 171 167 155 139 135 121 140 132 156 179 187 195 227 214 213 162 168 67 137 131 147 67 46 240 240 300 330 154 81 145 145 142 160 159 132 109 87 357 351 356 354 349 349 353 1 2 350
180 181 179 184 176 178 174 172 163 155 145 126 142 137 198 179 233 193 204 194 215 182 164 148 108 117 137 89 158 212 234 357 316 243 137 158 152 152 146 122 167 145 354 358 357 350 350 359 1 3 14 12 1 359
177 178 178 184 183 177 176 171 164 164 124 143 159 196 198 238 285 332 321 300 190 166 149 127 116 141 209 115 207 250 298 237 211 118 112 128 141 151 150 169 204 284 347 353 345 346 353 7 9 5 355 355 355 11
177 173 183 182 178 175 174 160 170 167 109 154 201 13 346 308 184 6 21 48 70 176 167 138 136 137 236 207 188 222 214 227 101 80 129 142 142 154 167 204 261 347 14 347 338 339 346 358 2 7 358 359 353 358
172 178 181 172 169 160 157 150 142 128 154 183 161 151 55 53 34 93 34 221 312 217 137 137 192 214 192 220 216 21 42 46 123 116 135 156 163 169 188 144 19 344 329 329 342 4 349 356 0 358 358 353 5 0
183 178 171 165 160 159 159 150 107 133 161 195 152 145 80 64 49 51 355 322 9 33 125 320 301 262 221 320 61 106 105 108 133 140 157 161 169 188 167 174 298 349 3 9 15 15 6 349 344 349 344 356 14 6
170 167 164 172 159 140 112 151 141 143 112 137 133 143 131 271 205 234 295 314 265 235 312 298 249 222 89 54 109 125 138 166 155 167 164 167 156 113 100 89 76 94 359 6 3 23 4 10 350 349 359 14 12 354
158 154 160 148 144 114 103 124 177 132 138 154 141 145 138 204 234 236 256 283 245 203 222 231 97 106 127 132 135 150 155 143 167 186 174 134 74 94 27 35 40 67 40 41 30 28 347 320 339 355 359 6 15 9
148 149 136 129 115 81 94 118 116 127 133 131 159 158 166 179 199 184 189 287 198 221 184 169 158 159 172 176 176 188 181 179 176 126 149 143 141 171 142 12 64 98 4 89 349 345 333 341 350 7 353 16 17 337
143 155 150 124 71 72 79 106 128 128 128 152 156 163 179 200 177 161 195 194 231 198 176 191 190 191 186 184 178 181 173 154 143 145 137 149 142 129 32 126 116 81 74 22 357 345 348 7 19 48 34 33 21 35
139 142 143 134 111 101 109 130 101 148 124 165 155 189 167 139 151 170 207 218 185 181 169 165 168 173 174 175 173 153 143 150 138 122 118 104 110 102 87 82 123 178 24 23 22 8 7 12 29 37 44 25 23 19
109 116 124 123 97 108 139 173 149 136 103 160 187 183 139 127 146 212 247 163 174 180 185 184 178 166 148 134 136 151 143 147 164 166 133 155 130 90 67 46 32 42 83 18 24 359 8 13 13 3 10 10 8 1
134 141 142 134 146 140 162 134 137 143 183 185 178 125 166 154 178 219 214 157 172 179 177 162 161 173 175 167 176 178 163 155 173 158 178 167 154 198 182 192 217 357 22 254 209 25 341 2 355 353 10 11 313 13
112 164 128 159 164 161 164 155 183 179 145 147 174 127 150 178 215 229 111 163 171 175 172 176 173 150 152 180 169 170 179 167 170 198 191 204 196 174 149 154 218 310 343 337 249 241 20 359 356 6 357 350 4 309
165 190 185 184 171 161 124 131 139 139 166 173 147 151 161 208 209 131 128 159 159 167 176 175 176 188 169 159 171 185 189 180 194 198 312 13 130 219 231 234 259 286 298 15 333 286 289 352 347 346 338 337 329 335
140 155 154 168 109 119 126 111 157 174 161 152 148 182 203 203 137 145 166 171 177 175 178 175 172 178 182 186 189 189 162 163 178 154 131 107 42 42 33 346 333 175 157 36 10 7 335 258 284 303 329 339 5 5
136 137 132 83 93 95 101 208 150 134 155 161 178 117 126 121 146 150 162 178 188 196 188 178 172 183 181 176 174 171 164 161 166 167 179 232 239 299 335 335 316 319 205 209 2 359 23 53 53 33 5 323 2 351
149 162 103 115 146 199 183 186 156 176 183 178 140 119 123 134 145 175 186 187 177 176 182 186 185 185 186 189 190 192 189 188 191 195 192 203 238 280 302 313 317 329 224 216 220 246 333 168 66 60 321 314 291 291
149 134 127 134 124 122 169 183 161 147 132 138 154 165 155 160 166 167 166 180 191 186 180 165 153 171 167 196 198 173 166 170 186 208 226 243 264 293 310 316 325 327 356 111 193 325 10 213 262 292 304 326 345 325
161 170 136 129 139 169 152 151 152 136 149 145 148 155 149 157 186 186 185 186 190 194 197 187 187 191 193 196 201 199 184 175 178 205 230 263 320 325 345 343 2 57 100 122 30 357 356 271 311 335 312 322 339 344
130 124 111 113 143 183 197 174 176 170 186 186 192 192 182 186 186 200 193 200 197 190 189 192 192 189 193 195 202 201 193 179 172 166 166 143 109 85 76 72 66 57 62 54 42 41 32 21 7 1 2 353 347 342